When you browse on this site, cookies collect data to enhance your experience and personalize the content and advertising you see.
Visit our Privacy Policy to learn more. By continuing to use the site, you agree to this use of cookies and data.
  • In Portugal
  • List of Countries
  • For 7 days
  • Water Temperature
  • Weather Map
  • Weather Widgets
  • user-avatar
    Login

    Hourly Weather Pavlovo-Bliny

    Today, 29 February, Saturday

    Time Temperature Precipitation Wind Pressure Humidity
    00:00 -6°C° 0.1 mm 2 mps 740 mmHg 90%
    01:00 -6°C° 0.1 mm 2 mps 741 mmHg 91%
    02:00 -6°C° 0.1 mm 2 mps 741 mmHg 91%
    03:00 -6°C° 0 mm 2 mps 741 mmHg 90%
    04:00 -6°C° 0 mm 2 mps 741 mmHg 90%
    05:00 -7°C° 0 mm 2 mps 741 mmHg 89%
    06:00 -7°C° 0 mm 2 mps 741 mmHg 89%
    07:00 -7°C° 0 mm 2 mps 742 mmHg 89%
    08:00 -6°C° 0 mm 2 mps 742 mmHg 88%
    09:00 -5°C° 0 mm 2 mps 742 mmHg 83%
    10:00 -3°C° 0 mm 2 mps 742 mmHg 77%
    11:00 -2°C° 0 mm 3 mps 742 mmHg 72%
    12:00 -1°C° 0 mm 3 mps 742 mmHg 71%
    13:00 -1°C° 0 mm 3 mps 742 mmHg 71%
    14:00 0°C° 0 mm 3 mps 742 mmHg 71%
    15:00 0°C° 0 mm 3 mps 742 mmHg 73%
    16:00 0°C° 0 mm 3 mps 742 mmHg 76%
    17:00 -1°C° 0 mm 3 mps 742 mmHg 79%
    18:00 -1°C° 0 mm 3 mps 741 mmHg 81%
    19:00 -2°C° 0 mm 3 mps 741 mmHg 84%
    20:00 -2°C° 0 mm 3 mps 741 mmHg 87%
    21:00 -2°C° 0 mm 3 mps 741 mmHg 89%
    22:00 -2°C° 0 mm 3 mps 741 mmHg 90%
    23:00 -2°C° 0 mm 3 mps 741 mmHg 92%

    Tomorrow, 1 March, Sunday

    Time Temperature Precipitation Wind Pressure Humidity
    00:00 -2°C° 0 mm 3 mps 740 mmHg 91%
    01:00 -2°C° 0 mm 3 mps 740 mmHg 91%
    02:00 -3°C° 0 mm 4 mps 739 mmHg 90%
    03:00 -3°C° 0 mm 4 mps 739 mmHg 90%
    04:00 -2°C° 0 mm 4 mps 738 mmHg 90%
    05:00 -2°C° 0 mm 5 mps 737 mmHg 90%
    06:00 -2°C° 0.2 mm 5 mps 737 mmHg 92%
    07:00 -1°C° 0.2 mm 5 mps 737 mmHg 93%
    08:00 -1°C° 0.2 mm 5 mps 736 mmHg 94%
    09:00 -1°C° 0.1 mm 5 mps 736 mmHg 94%
    10:00 -2°C° 0.1 mm 6 mps 736 mmHg 95%
    11:00 -1°C° 0.1 mm 6 mps 736 mmHg 96%
    12:00 0°C° 0 mm 5 mps 736 mmHg 94%
    13:00 +1°C° 0 mm 5 mps 736 mmHg 92%
    14:00 +1°C° 0 mm 4 mps 736 mmHg 91%
    15:00 +1°C° 0 mm 4 mps 737 mmHg 90%
    16:00 +2°C° 0 mm 3 mps 737 mmHg 90%
    17:00 +2°C° 0 mm 3 mps 737 mmHg 90%
    18:00 +2°C° 0 mm 3 mps 737 mmHg 90%
    19:00 +2°C° 0 mm 3 mps 737 mmHg 91%
    20:00 +1°C° 0 mm 3 mps 738 mmHg 92%
    21:00 +1°C° 0 mm 3 mps 738 mmHg 93%
    22:00 +1°C° 0 mm 3 mps 738 mmHg 94%
    23:00 0°C° 0 mm 3 mps 738 mmHg 95%

    Day after tomorrow, 2 March, Monday

    Time Temperature Precipitation Wind Pressure Humidity
    00:00 +1°C° 0.2 mm 3 mps 738 mmHg 95%
    01:00 +1°C° 0.2 mm 3 mps 738 mmHg 96%
    02:00 +1°C° 0.2 mm 3 mps 738 mmHg 96%
    03:00 +1°C° 0.1 mm 3 mps 738 mmHg 97%
    04:00 +1°C° 0.1 mm 3 mps 738 mmHg 97%
    05:00 +1°C° 0.1 mm 3 mps 737 mmHg 97%
    06:00 +2°C° 0.2 mm 2 mps 738 mmHg 97%
    07:00 +2°C° 0.2 mm 2 mps 738 mmHg 97%
    08:00 +2°C° 0.2 mm 2 mps 738 mmHg 97%
    09:00 +2°C° 0 mm 3 mps 738 mmHg 95%
    10:00 +2°C° 0 mm 3 mps 739 mmHg 94%
    11:00 +3°C° 0 mm 3 mps 739 mmHg 93%
    12:00 +3°C° 0 mm 3 mps 739 mmHg 91%
    13:00 +3°C° 0 mm 3 mps 739 mmHg 89%
    14:00 +3°C° 0 mm 3 mps 739 mmHg 87%
    15:00 +3°C° 0 mm 3 mps 739 mmHg 89%
    16:00 +4°C° 0 mm 2 mps 739 mmHg 90%
    17:00 +3°C° 0 mm 2 mps 739 mmHg 91%
    18:00 +3°C° 0 mm 2 mps 739 mmHg 92%
    19:00 +3°C° 0 mm 2 mps 739 mmHg 92%
    20:00 +3°C° 0 mm 2 mps 739 mmHg 93%
    21:00 +3°C° 0 mm 2 mps 739 mmHg 94%
    22:00 +2°C° 0 mm 3 mps 738 mmHg 94%
    23:00 +2°C° 0 mm 3 mps 738 mmHg 95%

    3 March, Tuesday

    Time Temperature Precipitation Wind Pressure Humidity
    00:00 +2°C° 0.5 mm 3 mps 738 mmHg 95%
    01:00 +3°C° 0.5 mm 3 mps 737 mmHg 96%
    02:00 +3°C° 0.5 mm 3 mps 737 mmHg 96%
    03:00 +3°C° 0.6 mm 3 mps 737 mmHg 96%
    04:00 +3°C° 0.6 mm 3 mps 737 mmHg 97%
    05:00 +3°C° 0.6 mm 3 mps 737 mmHg 97%
    06:00 +3°C° 0.2 mm 2 mps 737 mmHg 97%
    07:00 +3°C° 0.2 mm 2 mps 737 mmHg 97%
    08:00 +3°C° 0.2 mm 2 mps 738 mmHg 97%
    09:00 +4°C° 0 mm 2 mps 738 mmHg 97%
    10:00 +4°C° 0 mm 2 mps 739 mmHg 96%
    11:00 +4°C° 0 mm 2 mps 739 mmHg 96%
    12:00 +5°C° 0 mm 2 mps 740 mmHg 93%
    13:00 +6°C° 0 mm 2 mps 740 mmHg 90%
    14:00 +5°C° 0 mm 3 mps 741 mmHg 87%
    15:00 +6°C° 0 mm 2 mps 741 mmHg 88%
    16:00 +6°C° 0 mm 2 mps 741 mmHg 89%
    17:00 +6°C° 0 mm 1 mps 742 mmHg 90%
    18:00 +6°C° 0 mm 1 mps 742 mmHg 91%
    19:00 +5°C° 0 mm 1 mps 742 mmHg 91%
    20:00 +5°C° 0 mm 1 mps 743 mmHg 92%
    21:00 +4°C° 0 mm 2 mps 743 mmHg 92%
    22:00 +4°C° 0 mm 2 mps 743 mmHg 91%
    23:00 +4°C° 0 mm 2 mps 743 mmHg 91%

    4 March, Wednesday

    Time Temperature Precipitation Wind Pressure Humidity
    00:00 +4°C° 0 mm 2 mps 743 mmHg 91%
    01:00 +3°C° 0 mm 3 mps 743 mmHg 91%
    02:00 +3°C° 0 mm 3 mps 743 mmHg 90%
    03:00 +3°C° 0 mm 3 mps 742 mmHg 91%
    04:00 +3°C° 0 mm 3 mps 742 mmHg 92%
    05:00 +1°C° 0 mm 4 mps 742 mmHg 92%
    06:00 +1°C° 0 mm 4 mps 742 mmHg 92%
    07:00 +3°C° 0 mm 4 mps 741 mmHg 93%
    08:00 +3°C° 0 mm 4 mps 741 mmHg 93%
    09:00 +3°C° 0.1 mm 4 mps 741 mmHg 93%
    10:00 +3°C° 0.1 mm 4 mps 741 mmHg 93%
    11:00 +4°C° 0.1 mm 4 mps 741 mmHg 93%
    12:00 +4°C° 0.1 mm 3 mps 741 mmHg 93%
    13:00 +5°C° 0.1 mm 3 mps 741 mmHg 93%
    14:00 +5°C° 0.1 mm 3 mps 740 mmHg 92%
    15:00 +5°C° 0 mm 3 mps 740 mmHg 93%
    16:00 +5°C° 0 mm 3 mps 740 mmHg 93%
    17:00 +5°C° 0 mm 3 mps 740 mmHg 94%
    18:00 +5°C° 0 mm 3 mps 740 mmHg 94%
    19:00 +5°C° 0 mm 3 mps 739 mmHg 95%
    20:00 +5°C° 0 mm 3 mps 739 mmHg 95%
    21:00 +5°C° 0.4 mm 3 mps 739 mmHg 96%
    22:00 +5°C° 0.4 mm 3 mps 738 mmHg 96%
    23:00 +5°C° 0.4 mm 3 mps 738 mmHg 97%

    5 March, Thursday

    Time Temperature Precipitation Wind Pressure Humidity
    00:00 +5°C° 0.3 mm 3 mps 737 mmHg 96%
    01:00 +5°C° 0.3 mm 4 mps 737 mmHg 95%
    02:00 +6°C° 0.3 mm 4 mps 736 mmHg 94%
    03:00 +6°C° 0.2 mm 4 mps 736 mmHg 93%
    04:00 +6°C° 0.2 mm 4 mps 735 mmHg 92%
    05:00 +6°C° 0.2 mm 4 mps 734 mmHg 91%
    06:00 +6°C° 0.2 mm 5 mps 734 mmHg 89%
    07:00 +6°C° 0.2 mm 5 mps 734 mmHg 87%
    08:00 +7°C° 0.2 mm 5 mps 733 mmHg 86%
    09:00 +7°C° 0.1 mm 5 mps 733 mmHg 82%
    10:00 +7°C° 0.1 mm 5 mps 733 mmHg 79%
    11:00 +7°C° 0.1 mm 5 mps 733 mmHg 76%
    12:00 +6°C° 0 mm 5 mps 732 mmHg 74%
    13:00 +6°C° 0 mm 5 mps 732 mmHg 73%
    14:00 +6°C° 0 mm 5 mps 732 mmHg 72%
    15:00 +6°C° 0.1 mm 5 mps 732 mmHg 73%
    16:00 +6°C° 0.1 mm 5 mps 731 mmHg 75%
    17:00 +6°C° 0.1 mm 5 mps 731 mmHg 77%
    18:00 +5°C° 0.3 mm 4 mps 731 mmHg 80%
    19:00 +5°C° 0.3 mm 4 mps 731 mmHg 84%
    20:00 +5°C° 0.3 mm 4 mps 732 mmHg 88%
    21:00 +3°C° 0.6 mm 5 mps 732 mmHg 90%
    22:00 +2°C° 0.6 mm 5 mps 733 mmHg 92%
    23:00 +1°C° 0.6 mm 6 mps 733 mmHg 94%
    Show more